Location: Julian California
(33.0790°N, 116.6010°W)
Time: 02:58:47
(UTC-07:00)

Cosmos 1626 - Pass Details

Date: 12 July 2018
Orbit: 495 x 497 km, 82.5° (Epoch: 24 September)

Event Time Altitude Azimuth Distance (km) Brightness Sun altitude
Rises 20:37:43 0° 204° (SSW) 2,561 5.6 -8.2°
Reaches altitude 10° 20:39:57 10° 213° (SSW) 1,682 4.8 -8.6°
Maximum altitude 20:43:19 34° 280° (W) 834 4.0 -9.2°
Drops below altitude 10° 20:46:43 10° 346° (NNW) 1,693 5.6 -9.8°
Sets 20:48:58 0° 356° (N) 2,579 6.3 -10.2°
